User: anonymous   Login
Location: Ahausen
(50.4985°N, 8.2722°E)
Time: 10:43:06
(UTC+00:00)
Language:

Okean 2 - Orbit

View from above orbital plane
View from above orbital plane
View from above satellite
View from above satellite

Ground track
Ground track

The orbit data is extracted from the following two-line orbital elements,

1 20510U 90018A   20337.77869153  .00000462  00000-0  35316-4 0  9991
2 20510  82.5173  36.5318 0012921  35.2578 103.8238 14.99566649649808
Epoch (UTC): 02 December 2020 18:41:18
Eccentricity: 0.0012921
inclination: 82.5173°
perigee height: 559 km
apogee height: 577 km
right ascension of ascending node: 36.5318°
argument of perigee: 35.2578°
revolutions per day: 14.99566649
mean anomaly at epoch: 103.8238°
orbit number at epoch: 64980

The dashed part of the orbit path shows where the satellite is in the earth's shadow,  

DLR